• In Germany
  • List of Countries
  • For 7 days
  • Water Temperature
  • Satellite Maps
  • Weather Map
  • Weather Widgets
  • user-avatar
    Login

    Hourly Weather Khulna

    Today, 20 October, Friday

    Time Temperature Precipitation Wind Pressure Humidity
    00:00 +28°C° 0 mm 3 mps 755 mmHg 93%
    01:00 +28°C° 3.2 mm 4 mps 754 mmHg 93%
    02:00 +28°C° 3.2 mm 4 mps 754 mmHg 92%
    03:00 +28°C° 3.2 mm 5 mps 754 mmHg 92%
    04:00 +28°C° 6.3 mm 5 mps 754 mmHg 92%
    05:00 +28°C° 6.3 mm 5 mps 754 mmHg 92%
    06:00 +27°C° 0 mm 4 mps 754 mmHg 92%
    07:00 +27°C° 5.3 mm 5 mps 754 mmHg 92%
    08:00 +28°C° 5.3 mm 6 mps 755 mmHg 92%
    09:00 +28°C° 5.3 mm 6 mps 755 mmHg 92%
    10:00 +28°C° 4.3 mm 6 mps 755 mmHg 92%
    11:00 +28°C° 4.3 mm 6 mps 755 mmHg 91%
    12:00 +28°C° 4.3 mm 7 mps 755 mmHg 91%
    13:00 +29°C° 1.7 mm 6 mps 754 mmHg 90%
    14:00 +29°C° 1.7 mm 6 mps 754 mmHg 89%
    15:00 +29°C° 1.7 mm 6 mps 753 mmHg 88%
    16:00 +28°C° 0.8 mm 6 mps 753 mmHg 89%
    17:00 +28°C° 0.8 mm 5 mps 753 mmHg 90%
    18:00 +28°C° 0.8 mm 5 mps 753 mmHg 91%
    19:00 +28°C° 0.1 mm 5 mps 753 mmHg 91%
    20:00 +27°C° 0.1 mm 5 mps 753 mmHg 91%
    21:00 +27°C° 0.1 mm 4 mps 754 mmHg 91%
    22:00 +27°C° 0.6 mm 5 mps 753 mmHg 91%
    23:00 +27°C° 0.6 mm 5 mps 753 mmHg 91%

    Tomorrow, 21 October, Saturday

    Time Temperature Precipitation Wind Pressure Humidity
    00:00 +28°C° 0.6 mm 5 mps 753 mmHg 92%
    01:00 +28°C° 2.1 mm 6 mps 752 mmHg 91%
    02:00 +28°C° 2.1 mm 7 mps 752 mmHg 91%
    03:00 +28°C° 2.1 mm 7 mps 751 mmHg 91%
    04:00 +28°C° 3 mm 8 mps 751 mmHg 91%
    05:00 +28°C° 3 mm 8 mps 751 mmHg 91%
    06:00 +28°C° 3 mm 8 mps 750 mmHg 90%
    07:00 +28°C° 1.4 mm 8 mps 751 mmHg 90%
    08:00 +29°C° 1.4 mm 8 mps 751 mmHg 89%
    09:00 +29°C° 1.4 mm 8 mps 752 mmHg 88%
    10:00 +29°C° 0.8 mm 8 mps 751 mmHg 87%
    11:00 +29°C° 0.8 mm 8 mps 751 mmHg 87%
    12:00 +29°C° 0.8 mm 8 mps 751 mmHg 87%
    13:00 +29°C° 0.7 mm 8 mps 750 mmHg 87%
    14:00 +31°C° 0.7 mm 8 mps 750 mmHg 86%
    15:00 +30°C° 0.7 mm 7 mps 749 mmHg 86%
    16:00 +29°C° 0.8 mm 7 mps 749 mmHg 87%
    17:00 +28°C° 0.8 mm 7 mps 750 mmHg 88%
    18:00 +28°C° 0.8 mm 6 mps 750 mmHg 89%
    19:00 +28°C° 0 mm 6 mps 750 mmHg 90%
    20:00 +27°C° 0 mm 5 mps 751 mmHg 90%
    21:00 +27°C° 0 mm 5 mps 752 mmHg 91%
    22:00 +26°C° 0 mm 5 mps 752 mmHg 91%
    23:00 +26°C° 0 mm 5 mps 752 mmHg 91%

    Day after tomorrow, 22 October, Sunday

    Time Temperature Precipitation Wind Pressure Humidity
    00:00 +25°C° 0 mm 5 mps 752 mmHg 92%
    01:00 +25°C° 0 mm 4 mps 752 mmHg 92%
    02:00 +24°C° 0 mm 3 mps 752 mmHg 92%
    03:00 +24°C° 0 mm 2 mps 752 mmHg 92%
    04:00 +24°C° 0 mm 2 mps 752 mmHg 93%
    05:00 +24°C° 0 mm 2 mps 753 mmHg 93%
    06:00 +23°C° 0 mm 2 mps 753 mmHg 93%
    07:00 +25°C° 0 mm 2 mps 754 mmHg 88%
    08:00 +26°C° 0 mm 2 mps 754 mmHg 83%
    09:00 +28°C° 0 mm 2 mps 755 mmHg 78%
    10:00 +29°C° 0 mm 2 mps 755 mmHg 74%
    11:00 +30°C° 0 mm 2 mps 755 mmHg 69%
    12:00 +32°C° 0 mm 2 mps 754 mmHg 65%
    13:00 +32°C° 0 mm 2 mps 754 mmHg 64%
    14:00 +32°C° 0 mm 2 mps 753 mmHg 64%
    15:00 +32°C° 0 mm 1 mps 753 mmHg 63%
    16:00 +31°C° 0.1 mm 1 mps 753 mmHg 68%
    17:00 +30°C° 0.1 mm 1 mps 753 mmHg 73%
    18:00 +28°C° 0.1 mm 1 mps 753 mmHg 77%
    19:00 +28°C° 0 mm 1 mps 754 mmHg 80%
    20:00 +28°C° 0 mm 1 mps 755 mmHg 82%
    21:00 +27°C° 0 mm 1 mps 755 mmHg 84%
    22:00 +27°C° 0 mm 1 mps 755 mmHg 86%
    23:00 +26°C° 0 mm 1 mps 755 mmHg 88%

    23 October, Monday

    Time Temperature Precipitation Wind Pressure Humidity
    00:00 +26°C° 0 mm 1 mps 755 mmHg 89%
    01:00 +26°C° 0 mm 1 mps 755 mmHg 90%
    02:00 +25°C° 0 mm 1 mps 755 mmHg 91%
    03:00 +25°C° 0 mm 1 mps 754 mmHg 92%
    04:00 +23°C° 0 mm 0 mps 755 mmHg 93%
    05:00 +23°C° 0 mm 0 mps 755 mmHg 93%
    06:00 +23°C° 0 mm 0 mps 755 mmHg 93%
    07:00 +24°C° 0 mm 0 mps 756 mmHg 87%
    08:00 +26°C° 0 mm 0 mps 757 mmHg 81%
    09:00 +30°C° 0 mm 1 mps 757 mmHg 75%
    10:00 +31°C° 0 mm 1 mps 757 mmHg 69%
    11:00 +32°C° 0 mm 1 mps 756 mmHg 62%
    12:00 +33°C° 0 mm 1 mps 756 mmHg 56%
    13:00 +34°C° 0 mm 1 mps 755 mmHg 53%
    14:00 +34°C° 0 mm 1 mps 755 mmHg 50%
    15:00 +34°C° 0 mm 1 mps 754 mmHg 48%
    16:00 +32°C° 0 mm 1 mps 754 mmHg 52%
    17:00 +31°C° 0 mm 1 mps 755 mmHg 56%
    18:00 +29°C° 0 mm 1 mps 755 mmHg 61%
    19:00 +29°C° 0 mm 1 mps 755 mmHg 62%
    20:00 +26°C° 0 mm 0 mps 756 mmHg 64%
    21:00 +26°C° 0 mm 0 mps 756 mmHg 66%
    22:00 +25°C° 0 mm 0 mps 757 mmHg 67%
    23:00 +25°C° 0 mm 0 mps 757 mmHg 69%

    24 October, Tuesday

    Time Temperature Precipitation Wind Pressure Humidity
    00:00 +25°C° 0 mm 0 mps 757 mmHg 70%
    01:00 +24°C° 0 mm 0 mps 756 mmHg 71%
    02:00 +24°C° 0 mm 0 mps 756 mmHg 73%
    03:00 +24°C° 0 mm 0 mps 756 mmHg 74%
    04:00 +23°C° 0 mm 0 mps 756 mmHg 75%
    05:00 +25°C° 0 mm 1 mps 757 mmHg 77%
    06:00 +25°C° 0 mm 1 mps 757 mmHg 79%
    07:00 +26°C° 0 mm 1 mps 758 mmHg 75%
    08:00 +28°C° 0 mm 1 mps 758 mmHg 71%
    09:00 +30°C° 0 mm 1 mps 759 mmHg 67%
    10:00 +31°C° 0 mm 1 mps 758 mmHg 60%
    11:00 +32°C° 0 mm 1 mps 758 mmHg 53%
    12:00 +33°C° 0 mm 1 mps 757 mmHg 46%
    13:00 +33°C° 0 mm 1 mps 757 mmHg 45%
    14:00 +34°C° 0 mm 2 mps 756 mmHg 44%
    15:00 +34°C° 0 mm 2 mps 756 mmHg 44%
    16:00 +32°C° 0 mm 1 mps 756 mmHg 48%
    17:00 +30°C° 0 mm 1 mps 756 mmHg 52%
    18:00 +28°C° 0 mm 1 mps 756 mmHg 56%
    19:00 +28°C° 0 mm 1 mps 757 mmHg 57%
    20:00 +27°C° 0 mm 1 mps 757 mmHg 58%
    21:00 +26°C° 0 mm 1 mps 758 mmHg 59%
    22:00 +26°C° 0 mm 1 mps 758 mmHg 60%
    23:00 +26°C° 0 mm 1 mps 758 mmHg 60%

    25 October, Wednesday

    Time Temperature Precipitation Wind Pressure Humidity
    00:00 +25°C° 0 mm 1 mps 758 mmHg 61%
    01:00 +25°C° 0 mm 1 mps 758 mmHg 62%
    02:00 +25°C° 0 mm 1 mps 758 mmHg 64%
    03:00 +24°C° 0 mm 1 mps 758 mmHg 66%
    04:00 +24°C° 0 mm 1 mps 758 mmHg 69%
    05:00 +24°C° 0 mm 1 mps 758 mmHg 72%
    06:00 +23°C° 0 mm 1 mps 759 mmHg 75%
    07:00 +25°C° 0 mm 1 mps 759 mmHg 72%
    08:00 +27°C° 0 mm 1 mps 760 mmHg 68%
    09:00 +29°C° 0 mm 1 mps 760 mmHg 64%
    10:00 +30°C° 0 mm 1 mps 760 mmHg 58%
    11:00 +31°C° 0 mm 1 mps 760 mmHg 53%
    12:00 +33°C° 0 mm 1 mps 759 mmHg 47%
    13:00 +34°C° 0 mm 2 mps 758 mmHg 47%
    14:00 +34°C° 0 mm 2 mps 758 mmHg 47%
    15:00 +34°C° 0 mm 2 mps 757 mmHg 47%
    16:00 +31°C° 0 mm 2 mps 757 mmHg 52%
    17:00 +29°C° 0 mm 1 mps 757 mmHg 57%
    18:00 +28°C° 0 mm 1 mps 758 mmHg 62%
    19:00 +27°C° 0 mm 1 mps 758 mmHg 64%
    20:00 +27°C° 0 mm 1 mps 759 mmHg 65%
    21:00 +26°C° 0 mm 1 mps 759 mmHg 67%
    22:00 +26°C° 0 mm 1 mps 759 mmHg 68%
    23:00 +26°C° 0 mm 1 mps 759 mmHg 69%
    Show more